Weather History for Buckland, AK

Change the Weather History Date:

Friday, April 12, 2013

  Actual Average (PASK) Record (PASK)
Temperature  
Mean Temperature -8 °F -  
Max Temperature 3 °F 21 °F 42 °F (2001)
Min Temperature -20 °F 7 °F -16 °F (2005)
Degree Days  
Heating Degree Days 74    
Moisture  
Dew Point -13 °F    
Average Humidity 79    
Maximum Humidity 100    
Minimum Humidity 58    
Precipitation  
Precipitation 0.00 in - - ()
Sea Level Pressure  
Sea Level Pressure 30.47 in    
Wind  
Wind Speed 4 mph (SSE)    
Max Wind Speed 9 mph    
Max Gust Speed -    
Visibility 10 miles    
Events      
Averages and records for this station are not official NWS values.
T = Trace of Precipitation, MM = Missing Value Source: NWS Daily Summary

Daily Weather History Graph

Daily Weather History Graph

Search for Another Location

Airport:

Trip Planner

Search our weather history database for the weather conditions in past years. The results will help you decide how hot, cold, wet, or windy it might be!

Date:

Astronomy

Apr. 12, 2013 Rise Set
Actual Time 7:14 AM AKDT 10:18 PM AKDT
Civil Twilight 6:14 AM AKDT 11:18 PM AKDT
Nautical Twilight 4:45 AM AKDT 12:51 AM AKDT
Astronomical Twilight Sun does not rise Sun does not rise
Moon 7:30 AM AKDT (4/12) 12:58 AM AKDT (4/12)
Length of Visible Light 17h 03m
Length of Day
15h 04m
Waxing Crescent, 6% of the Moon is Illuminated
Apr 12
Waxing Crescent
Apr 18
First Quarter
Apr 25
Full
May 2
Last Quarter
May 9
New

Hourly Weather History & Observations

Time (AKDT) Temp. Windchill Dew Point Humidity Pressure Visibility Wind Dir Wind Speed Gust Speed Precip Events Conditions
12:16 AM -9.4 °F - -16.6 °F 71% 30.43 in 10.0 mi Calm Calm - N/A   Clear
12:36 AM -11.2 °F -23.0 °F -14.8 °F 84% 30.44 in 10.0 mi SSE 4.6 mph - N/A   Clear
12:56 AM -13.0 °F -22.7 °F -18.4 °F 77% 30.44 in 10.0 mi SSE 3.5 mph - N/A   Clear
1:16 AM -11.2 °F -23.0 °F -11.2 °F 100% 30.44 in 10.0 mi SSE 4.6 mph - N/A   Clear
1:36 AM -14.8 °F -27.2 °F -23.8 °F 64% 30.45 in 10.0 mi SSE 4.6 mph - N/A   Clear
1:56 AM -16.6 °F -29.3 °F -16.6 °F 100% 30.45 in 10.0 mi South 4.6 mph - N/A   Clear
2:16 AM -14.8 °F -24.8 °F -22.0 °F 70% 30.46 in 10.0 mi SSE 3.5 mph - N/A   Clear
2:36 AM -14.8 °F -27.2 °F -14.8 °F 100% 30.46 in 10.0 mi SSE 4.6 mph - N/A   Clear
2:56 AM -14.8 °F -24.8 °F -25.6 °F 58% 30.46 in 10.0 mi SSE 3.5 mph - N/A   Clear
3:16 AM -14.8 °F -24.8 °F -14.8 °F 100% 30.47 in 10.0 mi SE 3.5 mph - N/A   Clear
3:36 AM -11.2 °F -20.6 °F -18.4 °F 70% 30.46 in 10.0 mi ESE 3.5 mph - N/A   Clear
3:56 AM -14.8 °F - -22.0 °F 70% 30.46 in 10.0 mi Calm Calm - N/A   Clear
4:16 AM -18.4 °F - - N/A% 30.47 in 10.0 mi Calm Calm - N/A   Clear
4:36 AM -18.4 °F - - N/A% 30.47 in 10.0 mi Calm Calm - N/A   Clear
4:56 AM -16.6 °F - - N/A% 30.47 in 10.0 mi Calm Calm - N/A   Scattered Clouds
5:16 AM -18.4 °F -28.9 °F -20.2 °F 91% 30.47 in 10.0 mi South 3.5 mph - N/A   Mostly Cloudy
5:36 AM -18.4 °F - -23.8 °F 76% 30.47 in 10.0 mi Calm Calm - N/A   Overcast
5:56 AM -18.4 °F -28.9 °F -27.4 °F 63% 30.47 in 10.0 mi South 3.5 mph - N/A   Mostly Cloudy
6:16 AM -18.4 °F -31.4 °F - N/A% 30.47 in 10.0 mi South 4.6 mph - N/A   Overcast
6:56 AM -20.2 °F -35.5 °F -23.8 °F 83% 30.48 in 10.0 mi South 5.8 mph - N/A   Partly Cloudy
7:16 AM -18.4 °F -28.9 °F -20.2 °F 91% 30.48 in 10.0 mi SSE 3.5 mph - N/A   Clear
7:36 AM -18.4 °F -33.4 °F -23.8 °F 76% 30.48 in 10.0 mi South 5.8 mph - N/A   Clear
7:56 AM -18.4 °F -31.4 °F -20.2 °F 91% 30.48 in 10.0 mi SSE 4.6 mph - N/A   Clear
8:16 AM -20.2 °F -37.3 °F -27.4 °F 69% 30.48 in 10.0 mi SSE 6.9 mph - N/A   Clear
8:36 AM -18.4 °F -31.4 °F -18.4 °F 100% 30.48 in 10.0 mi SE 4.6 mph - N/A   Clear
8:56 AM -16.6 °F -31.3 °F -25.6 °F 64% 30.49 in 10.0 mi SSE 5.8 mph - N/A   Clear
9:16 AM -16.6 °F -31.3 °F -18.4 °F 92% 30.49 in 10.0 mi SSE 5.8 mph - N/A   Clear
9:36 AM -16.6 °F -31.3 °F -22.0 °F 76% 30.49 in 10.0 mi SE 5.8 mph - N/A   Clear
9:56 AM -16.6 °F -32.9 °F -16.6 °F 100% 30.49 in 10.0 mi SSE 6.9 mph - N/A   Clear
10:16 AM -14.8 °F -30.8 °F -20.2 °F 77% 30.49 in 10.0 mi SSE 6.9 mph - N/A   Clear
10:36 AM -14.8 °F -30.8 °F -14.8 °F 100% 30.49 in 10.0 mi SE 6.9 mph - N/A   Clear
10:56 AM -11.2 °F -24.8 °F -18.4 °F 70% 30.49 in 10.0 mi SSE 5.8 mph - N/A   Clear
11:16 AM -11.2 °F -27.8 °F -13.0 °F 92% 30.49 in 10.0 mi SE 8.1 mph - N/A   Clear
11:36 AM -11.2 °F -24.8 °F -18.4 °F 70% 30.49 in 10.0 mi SSE 5.8 mph - N/A   Clear
11:56 AM -9.4 °F -22.7 °F -9.4 °F 100% 30.49 in 10.0 mi SSE 5.8 mph - N/A   Clear
12:16 PM -7.6 °F -22.1 °F -16.6 °F 65% 30.49 in 10.0 mi SSE 6.9 mph - N/A   Clear
12:36 PM -7.6 °F -22.1 °F -9.4 °F 92% 30.49 in 10.0 mi SSE 6.9 mph - N/A   Clear
12:56 PM -7.6 °F -20.6 °F -14.8 °F 71% 30.49 in 10.0 mi South 5.8 mph - N/A   Clear
1:16 PM -7.6 °F -22.1 °F -9.4 °F 92% 30.49 in 10.0 mi South 6.9 mph - N/A   Clear
1:36 PM -5.8 °F -21.2 °F -9.4 °F 84% 30.49 in 10.0 mi South 8.1 mph - N/A   Clear
1:56 PM -5.8 °F -19.9 °F -14.8 °F 65% 30.49 in 10.0 mi South 6.9 mph - N/A   Clear
2:16 PM -5.8 °F -21.2 °F -5.8 °F 100% 30.49 in 10.0 mi SSE 8.1 mph - N/A   Clear
2:36 PM -2.2 °F -16.8 °F -11.2 °F 66% 30.49 in 10.0 mi SSE 8.1 mph - N/A   Clear
2:56 PM -2.2 °F -16.8 °F -7.6 °F 78% 30.48 in 10.0 mi SSE 8.1 mph - N/A   Clear
3:16 PM -0.4 °F -15.7 °F -5.8 °F 78% 30.48 in 10.0 mi SSE 9.2 mph - N/A   Clear
3:36 PM -0.4 °F -14.7 °F -7.6 °F 72% 30.48 in 10.0 mi South 8.1 mph - N/A   Clear
3:56 PM -0.4 °F -13.4 °F -7.6 °F 72% 30.48 in 10.0 mi South 6.9 mph - N/A   Clear
4:16 PM -0.4 °F -12.0 °F -7.6 °F 72% 30.48 in 10.0 mi South 5.8 mph - N/A   Clear
4:36 PM 1.4 °F -11.3 °F -2.2 °F 85% 30.48 in 10.0 mi South 6.9 mph - N/A   Clear
4:56 PM 1.4 °F -9.9 °F -7.6 °F 66% 30.48 in 10.0 mi SSE 5.8 mph - N/A   Clear
5:16 PM 3.2 °F -7.8 °F -5.8 °F 66% 30.48 in 10.0 mi SSE 5.8 mph - N/A   Clear
5:36 PM 3.2 °F -9.1 °F -2.2 °F 78% 30.47 in 10.0 mi SE 6.9 mph - N/A   Clear
5:56 PM 3.2 °F -11.3 °F -5.8 °F 66% 30.47 in 10.0 mi SSE 9.2 mph - N/A   Clear
6:16 PM 3.2 °F -10.3 °F -4.0 °F 72% 30.47 in 10.0 mi SSE 8.1 mph - N/A   Clear
6:36 PM 3.2 °F -9.1 °F -2.2 °F 78% 30.46 in 10.0 mi SE 6.9 mph - N/A   Clear
6:56 PM 3.2 °F -10.3 °F -2.2 °F 78% 30.46 in 10.0 mi SE 8.1 mph - N/A   Clear
7:16 PM 3.2 °F -7.8 °F -2.2 °F 78% 30.46 in 10.0 mi SSE 5.8 mph - N/A   Clear
7:36 PM 3.2 °F -6.2 °F -2.2 °F 78% 30.46 in 10.0 mi SSW 4.6 mph - N/A   Clear
7:56 PM 1.4 °F - -5.8 °F 72% 30.46 in 10.0 mi Calm Calm - N/A   Clear
8:16 PM 3.2 °F -6.2 °F -4.0 °F 72% 30.46 in 10.0 mi South 4.6 mph - N/A   Clear
8:36 PM 3.2 °F -9.1 °F -4.0 °F 72% 30.45 in 10.0 mi SSE 6.9 mph - N/A   Clear
8:56 PM 1.4 °F -8.3 °F -5.8 °F 72% 30.45 in 10.0 mi South 4.6 mph - N/A   Clear
9:16 PM -0.4 °F - -9.4 °F 66% 30.45 in 10.0 mi Calm Calm - N/A   Clear
9:36 PM -0.4 °F -10.4 °F -4.0 °F 85% 30.45 in 10.0 mi SSE 4.6 mph - N/A   Clear
9:56 PM -0.4 °F -15.7 °F -7.6 °F 72% 30.45 in 10.0 mi SSE 9.2 mph - N/A   Clear
10:16 PM -0.4 °F -12.0 °F -9.4 °F 66% 30.46 in 10.0 mi SSE 5.8 mph - N/A   Clear
10:36 PM -2.2 °F -16.8 °F -4.0 °F 92% 30.45 in 10.0 mi SE 8.1 mph - N/A   Clear
10:56 PM -2.2 °F -15.6 °F -9.4 °F 71% 30.45 in 10.0 mi SSE 6.9 mph - N/A   Clear
11:16 PM -5.8 °F -16.7 °F -14.8 °F 65% 30.45 in 10.0 mi SSE 4.6 mph - N/A   Clear
11:36 PM -5.8 °F -19.9 °F -5.8 °F 100% 30.44 in 10.0 mi SSE 6.9 mph - N/A   Clear
11:56 PM -7.6 °F -18.8 °F -18.4 °F 59% 30.45 in 10.0 mi South 4.6 mph - N/A   Clear